Novato, CA

1:57 AM PST on November 24, 2017 (GMT -0800)
Gnoss

Weather History for KDVO - October, 2012

Change the Weather History Date:

Sunday, October 7, 2012

  Actual Average (KAPC) Record (KAPC)
Temperature  
Mean Temperature 60 °F -  
Max Temperature 75 °F 80 °F 91 °F (2002)
Min Temperature 44 °F 48 °F 37 °F (2009)
Degree Days  
Heating Degree Days 6    
Growing Degree Days 10 (Base 50)    
Moisture  
Dew Point 50 °F    
Average Humidity 79    
Maximum Humidity 100    
Minimum Humidity 38    
Precipitation  
Precipitation 0.00 in - - ()
Sea Level Pressure  
Sea Level Pressure 29.99 in    
Wind  
Wind Speed 3 mph (NNW)    
Max Wind Speed 14 mph    
Max Gust Speed 21 mph    
Visibility 8 miles    
Events Fog    
Averages and records for this station are not official NWS values.
T = Trace of Precipitation, MM = Missing Value Source: NWS Daily Summary

Daily Weather History Graph

Daily Weather History Graph

Search for Another Location

Airport or City:

Trip Planner

Search our weather history database for the weather conditions in past years. The results will help you decide how hot, cold, wet, or windy it might be!

Date:

Astronomy

Oct. 07, 2012 Rise Set
Actual Time 7:11 AM PDT 6:43 PM PDT
Civil Twilight 6:45 AM PDT 7:09 PM PDT
Nautical Twilight 6:15 AM PDT 7:40 PM PDT
Astronomical Twilight 5:44 AM PDT 8:10 PM PDT
Moon No Moon Rise 1:49 PM PDT (10/7)
Length of Visible Light 12h 23m
Length of Day
11h 31m
Waning Gibbous, 55% of the Moon is Illuminated
Oct 7
Waning Gibbous
Oct 8
Last Quarter
Oct 15
New
Oct 21
First Quarter
Oct 29
Full

Hourly Weather History & Observations

Time (PDT) Temp. Dew Point Humidity Pressure Visibility Wind Dir Wind Speed Gust Speed Precip Events Conditions
12:15 AM 51.8 °F 51.8 °F 100% 29.99 in 10.0 mi Calm Calm - N/A   Clear
12:35 AM 53.6 °F 53.6 °F 100% 29.99 in 10.0 mi ESE 4.6 mph - N/A   Clear
12:55 AM 48.2 °F 48.2 °F 100% 29.99 in 10.0 mi East 4.6 mph - N/A   Clear
1:15 AM 50.0 °F 50.0 °F 100% 29.99 in 10.0 mi Calm Calm - N/A   Clear
1:55 AM 50.0 °F 50.0 °F 100% 29.99 in 9.0 mi Calm Calm - N/A   Clear
2:15 AM 46.4 °F 46.4 °F 100% 29.99 in 10.0 mi Calm Calm - N/A   Clear
2:35 AM 48.2 °F 48.2 °F 100% 29.99 in 1.0 mi Calm Calm - N/A   Clear
2:55 AM 48.2 °F 48.2 °F 100% 29.99 in 10.0 mi Calm Calm - N/A   Clear
3:15 AM 46.4 °F 46.4 °F 100% 29.99 in 8.0 mi Calm Calm - N/A   Clear
3:35 AM 48.2 °F 48.2 °F 100% 29.99 in 10.0 mi Calm Calm - N/A   Clear
3:55 AM 50.0 °F 50.0 °F 100% 29.99 in 9.0 mi Calm Calm - N/A   Clear
4:15 AM 50.0 °F 50.0 °F 100% 29.99 in 10.0 mi Calm Calm - N/A   Clear
4:35 AM 44.6 °F 44.6 °F 100% 29.99 in 2.0 mi Calm Calm - N/A   Clear
4:55 AM 48.2 °F 48.2 °F 100% 29.99 in 10.0 mi Calm Calm - N/A   Clear
5:15 AM 44.6 °F 44.6 °F 100% 29.99 in 0.2 mi Calm Calm - N/A Fog Fog
5:35 AM 46.4 °F 46.4 °F 100% 29.99 in 0.2 mi Calm Calm - N/A Fog Fog
5:55 AM 46.4 °F 46.4 °F 100% 29.99 in 10.0 mi Calm Calm - N/A   Scattered Clouds
6:15 AM 46.4 °F 46.4 °F 100% 29.99 in 0.2 mi Calm Calm - N/A Fog Fog
6:35 AM 46.4 °F 46.4 °F 100% 30.00 in 0.2 mi Calm Calm - N/A Fog Fog
6:55 AM 48.2 °F 48.2 °F 100% 30.00 in 0.2 mi NNW 4.6 mph - N/A Fog Fog
7:15 AM 48.2 °F 48.2 °F 100% 30.01 in 0.8 mi NNW 3.5 mph - N/A   Overcast
7:35 AM 48.2 °F 48.2 °F 100% 30.02 in 9.0 mi Calm Calm - N/A   Overcast
7:55 AM 50.0 °F 50.0 °F 100% 30.03 in 2.5 mi NW 3.5 mph - N/A   Overcast
8:15 AM 50.0 °F 50.0 °F 100% 30.02 in 3.0 mi NW 3.5 mph - N/A   Overcast
8:35 AM 50.0 °F 50.0 °F 100% 30.03 in 3.0 mi NW 3.5 mph - N/A   Overcast
8:55 AM 50.0 °F 50.0 °F 100% 30.03 in 3.0 mi North 3.5 mph - N/A   Overcast
9:15 AM 51.8 °F 51.8 °F 100% 30.03 in 5.0 mi Calm Calm - N/A   Overcast
9:35 AM 51.8 °F 51.8 °F 100% 30.03 in 5.0 mi NW 3.5 mph - N/A   Overcast
9:55 AM 53.6 °F 53.6 °F 100% 30.03 in 9.0 mi North 4.6 mph - N/A   Overcast
10:15 AM 55.4 °F 55.4 °F 100% 30.03 in 10.0 mi NE 4.6 mph - N/A   Overcast
10:35 AM 57.2 °F 55.4 °F 94% 30.02 in 10.0 mi NE 3.5 mph - N/A   Scattered Clouds
10:55 AM 59.0 °F 55.4 °F 88% 30.02 in 10.0 mi Calm Calm - N/A   Clear
11:15 AM 62.6 °F 55.4 °F 77% 30.01 in 10.0 mi NE 3.5 mph - N/A   Clear
11:35 AM 62.6 °F 55.4 °F 77% 30.00 in 10.0 mi East 3.5 mph - N/A   Clear
11:55 AM 66.2 °F 55.4 °F 68% 30.00 in 10.0 mi Calm Calm - N/A   Clear
12:15 PM 68.0 °F 53.6 °F 60% 29.99 in 10.0 mi South 3.5 mph - N/A   Clear
12:35 PM 68.0 °F 53.6 °F 60% 29.99 in 10.0 mi WNW 4.6 mph - N/A   Clear
12:55 PM 71.6 °F 50.0 °F 46% 29.98 in 10.0 mi NW 6.9 mph - N/A   Clear
1:15 PM 73.4 °F 48.2 °F 41% 29.97 in 10.0 mi NW 11.5 mph - N/A   Clear
1:35 PM 75.2 °F 48.2 °F 38% 29.96 in 10.0 mi NNW 12.7 mph 16.1 mph N/A   Clear
1:55 PM 75.2 °F 48.2 °F 38% 29.96 in 10.0 mi NNW 10.4 mph - N/A   Clear
2:15 PM 75.2 °F 48.2 °F 38% 29.95 in 10.0 mi NNW 10.4 mph 16.1 mph N/A   Clear
2:35 PM 75.2 °F 48.2 °F 38% 29.95 in 10.0 mi NW 10.4 mph - N/A   Clear
2:55 PM 73.4 °F 48.2 °F 41% 29.94 in 10.0 mi West 8.1 mph 20.7 mph N/A   Clear
3:15 PM 73.4 °F 48.2 °F 41% 29.94 in 10.0 mi West 9.2 mph 16.1 mph N/A   Clear
3:35 PM 71.6 °F 48.2 °F 43% 29.95 in 10.0 mi West 13.8 mph 18.4 mph N/A   Clear
3:55 PM 71.6 °F 48.2 °F 43% 29.94 in 10.0 mi West 11.5 mph - N/A   Clear
4:15 PM 69.8 °F 48.2 °F 46% 29.94 in 10.0 mi West 10.4 mph 18.4 mph N/A   Clear
4:35 PM 68.0 °F 48.2 °F 49% 29.95 in 10.0 mi West 9.2 mph 18.4 mph N/A   Clear
4:55 PM 68.0 °F 50.0 °F 52% 29.95 in 10.0 mi North 3.5 mph - N/A   Clear
5:15 PM 68.0 °F 50.0 °F 52% 29.95 in 10.0 mi WNW 3.5 mph - N/A   Clear
5:35 PM 66.2 °F 50.0 °F 56% 29.95 in 10.0 mi North 8.1 mph - N/A   Clear
5:55 PM 64.4 °F 50.0 °F 59% 29.95 in 10.0 mi North 8.1 mph - N/A   Clear
6:15 PM 62.6 °F 50.0 °F 63% 29.96 in 10.0 mi North 9.2 mph - N/A   Clear
6:35 PM 60.8 °F 50.0 °F 68% 29.96 in 10.0 mi NNW 8.1 mph - N/A   Clear
6:55 PM 60.8 °F 50.0 °F 68% 29.96 in 10.0 mi North 8.1 mph - N/A   Clear
7:15 PM 59.0 °F 50.0 °F 72% 29.96 in 10.0 mi North 9.2 mph - N/A   Clear
7:35 PM 59.0 °F 50.0 °F 72% 29.97 in 10.0 mi North 11.5 mph - N/A   Clear
7:55 PM 59.0 °F 50.0 °F 72% 29.97 in 10.0 mi North 9.2 mph - N/A   Clear
8:15 PM 59.0 °F 50.0 °F 72% 29.97 in 10.0 mi North 8.1 mph - N/A   Clear
8:35 PM 59.0 °F 50.0 °F 72% 29.98 in 10.0 mi NNW 10.4 mph 18.4 mph N/A   Clear
8:55 PM 59.0 °F 50.0 °F 72% 29.98 in 10.0 mi NNE 5.8 mph - N/A   Clear
9:15 PM 59.0 °F 50.0 °F 72% 29.98 in 10.0 mi NW 5.8 mph - N/A   Clear
9:35 PM 59.0 °F 48.2 °F 67% 29.98 in 10.0 mi SSE 4.6 mph - N/A   Clear
9:55 PM 57.2 °F 50.0 °F 77% 29.98 in 10.0 mi South 10.4 mph 16.1 mph N/A   Clear
10:15 PM 57.2 °F 50.0 °F 77% 29.99 in 10.0 mi South 10.4 mph - N/A   Clear
10:35 PM 57.2 °F 50.0 °F 77% 30.00 in 10.0 mi SE 4.6 mph - N/A   Clear
10:55 PM 55.4 °F 51.8 °F 88% 30.00 in 10.0 mi ESE 3.5 mph - N/A   Clear
11:15 PM 57.2 °F 50.0 °F 77% 30.00 in 10.0 mi SE 3.5 mph - N/A   Clear
11:35 PM 53.6 °F 50.0 °F 88% 30.00 in 10.0 mi ENE 4.6 mph - N/A   Clear
11:55 PM 53.6 °F 50.0 °F 88% 30.00 in 10.0 mi Calm Calm - N/A   Clear